Year,Month,Day,Hour,Minute,Value (Times are PST for temperature in C)
2012,03,25,00,00,3.30
2012,03,25,00,01,3.30
2012,03,25,00,02,3.30
2012,03,25,00,03,3.30
2012,03,25,00,04,3.30
2012,03,25,00,05,3.20
2012,03,25,00,06,3.20
2012,03,25,00,07,3.20
2012,03,25,00,08,3.20
2012,03,25,00,09,3.20
2012,03,25,00,10,3.20
2012,03,25,00,11,3.20
2012,03,25,00,12,3.20
2012,03,25,00,13,3.20
2012,03,25,00,14,3.20
2012,03,25,00,15,3.20
2012,03,25,00,16,3.20
2012,03,25,00,17,3.20
2012,03,25,00,18,3.20
2012,03,25,00,19,3.10
2012,03,25,00,20,3.10
2012,03,25,00,21,3.10
2012,03,25,00,22,3.10
2012,03,25,00,23,3.10
2012,03,25,00,24,3.10
2012,03,25,00,25,3.10
2012,03,25,00,26,3.10
2012,03,25,00,27,3.10
2012,03,25,00,28,3.10
2012,03,25,00,29,3.10
2012,03,25,00,30,3.10
2012,03,25,00,31,3.10
2012,03,25,00,32,3.10
2012,03,25,00,33,3.10
2012,03,25,00,34,2.90
2012,03,25,00,35,2.90
2012,03,25,00,36,2.90
2012,03,25,00,37,2.90
2012,03,25,00,38,2.90
2012,03,25,00,39,2.90
2012,03,25,00,40,2.90
2012,03,25,00,41,2.90
2012,03,25,00,42,2.90
2012,03,25,00,43,2.90
2012,03,25,00,44,2.90
2012,03,25,00,45,2.90
2012,03,25,00,46,2.90
2012,03,25,00,47,2.80
2012,03,25,00,48,2.80
2012,03,25,00,49,2.80
2012,03,25,00,50,2.80
2012,03,25,00,51,2.80
2012,03,25,00,52,2.80
2012,03,25,00,53,2.80
2012,03,25,00,54,2.80
2012,03,25,00,55,2.80
2012,03,25,00,56,2.80
2012,03,25,00,57,2.80
2012,03,25,00,58,2.80
2012,03,25,00,59,2.80
2012,03,25,01,00,2.90
2012,03,25,01,01,2.90
2012,03,25,01,02,2.90
2012,03,25,01,03,2.90
2012,03,25,01,04,3.00
2012,03,25,01,05,3.10
2012,03,25,01,06,3.10
2012,03,25,01,07,3.10
2012,03,25,01,08,3.10
2012,03,25,01,09,3.10
2012,03,25,01,10,3.10
2012,03,25,01,11,3.10
2012,03,25,01,12,3.10
2012,03,25,01,13,3.10
2012,03,25,01,14,3.20
2012,03,25,01,15,3.20
2012,03,25,01,16,3.20
2012,03,25,01,17,3.20
2012,03,25,01,18,3.20
2012,03,25,01,19,3.20
2012,03,25,01,20,3.20
2012,03,25,01,21,3.20
2012,03,25,01,22,3.20
2012,03,25,01,23,3.20
2012,03,25,01,24,3.20
2012,03,25,01,25,3.20
2012,03,25,01,26,3.20
2012,03,25,01,27,3.20
2012,03,25,01,28,3.20
2012,03,25,01,29,3.20
2012,03,25,01,30,3.20
2012,03,25,01,31,3.20
2012,03,25,01,32,3.20
2012,03,25,01,33,3.20
2012,03,25,01,34,3.20
2012,03,25,01,35,3.20
2012,03,25,01,36,3.20
2012,03,25,01,37,3.20
2012,03,25,01,38,3.20
2012,03,25,01,39,3.20
2012,03,25,01,40,3.20
2012,03,25,01,41,3.20
2012,03,25,01,42,3.20
2012,03,25,01,43,3.20
2012,03,25,01,44,3.20
2012,03,25,01,45,3.20
2012,03,25,01,46,3.20
2012,03,25,01,47,3.20
2012,03,25,01,48,3.20
2012,03,25,01,49,3.20
2012,03,25,01,50,3.20
2012,03,25,01,51,3.20
2012,03,25,01,52,3.20
2012,03,25,01,53,3.10
2012,03,25,01,54,3.10
2012,03,25,01,55,3.10
2012,03,25,01,56,3.10
2012,03,25,01,57,3.10
2012,03,25,01,58,3.10
2012,03,25,01,59,3.00
2012,03,25,02,00,2.90
2012,03,25,02,01,2.90
2012,03,25,02,02,2.90
2012,03,25,02,03,2.90
2012,03,25,02,04,2.90
2012,03,25,02,05,2.80
2012,03,25,02,06,2.80
2012,03,25,02,07,2.80
2012,03,25,02,08,2.80
2012,03,25,02,09,2.80
2012,03,25,02,10,2.80
2012,03,25,02,11,2.80
2012,03,25,02,12,2.80
2012,03,25,02,13,2.80
2012,03,25,02,14,2.80
2012,03,25,02,15,2.80
2012,03,25,02,16,2.80
2012,03,25,02,17,2.80
2012,03,25,02,18,2.80
2012,03,25,02,19,2.80
2012,03,25,02,20,2.80
2012,03,25,02,21,2.80
2012,03,25,02,22,2.80
2012,03,25,02,23,2.80
2012,03,25,02,24,2.80
2012,03,25,02,25,2.80
2012,03,25,02,26,2.80
2012,03,25,02,27,2.80
2012,03,25,02,28,2.80
2012,03,25,02,29,2.80
2012,03,25,02,30,2.80
2012,03,25,02,31,2.80
2012,03,25,02,32,2.80
2012,03,25,02,33,2.80
2012,03,25,02,34,2.80
2012,03,25,02,35,2.80
2012,03,25,02,36,2.80
2012,03,25,02,37,2.80
2012,03,25,02,38,2.80
2012,03,25,02,39,2.90
2012,03,25,02,40,2.90
2012,03,25,02,41,2.90
2012,03,25,02,42,2.90
2012,03,25,02,43,2.90
2012,03,25,02,44,2.90
2012,03,25,02,45,2.90
2012,03,25,02,46,2.90
2012,03,25,02,47,2.90
2012,03,25,02,48,3.00
2012,03,25,02,49,3.10
2012,03,25,02,50,3.10
2012,03,25,02,51,3.10
2012,03,25,02,52,3.10
2012,03,25,02,53,3.10
2012,03,25,02,54,3.10
2012,03,25,02,55,3.10
2012,03,25,02,56,3.10
2012,03,25,02,57,3.10
2012,03,25,02,58,3.10
2012,03,25,02,59,3.10
2012,03,25,03,00,3.10
2012,03,25,03,01,3.10
2012,03,25,03,02,3.10
2012,03,25,03,03,3.10
2012,03,25,03,04,3.10
2012,03,25,03,05,3.20
2012,03,25,03,06,3.20
2012,03,25,03,07,3.20
2012,03,25,03,08,3.20
2012,03,25,03,09,3.20
2012,03,25,03,10,3.20
2012,03,25,03,11,3.20
2012,03,25,03,12,3.30
2012,03,25,03,13,3.30
2012,03,25,03,14,3.30
2012,03,25,03,15,3.30
2012,03,25,03,16,3.30
2012,03,25,03,17,3.30
2012,03,25,03,18,3.20
2012,03,25,03,19,3.20
2012,03,25,03,20,3.20
2012,03,25,03,21,3.20
2012,03,25,03,22,3.20
2012,03,25,03,23,3.30
2012,03,25,03,24,3.30
2012,03,25,03,25,3.30
2012,03,25,03,26,3.30
2012,03,25,03,27,3.30
2012,03,25,03,28,3.30
2012,03,25,03,29,3.30
2012,03,25,03,30,3.30
2012,03,25,03,31,3.30
2012,03,25,03,32,3.30
2012,03,25,03,33,3.30
2012,03,25,03,34,3.30
2012,03,25,03,35,3.30
2012,03,25,03,36,3.30
2012,03,25,03,37,3.30
2012,03,25,03,38,3.30
2012,03,25,03,39,3.30
2012,03,25,03,40,3.30
2012,03,25,03,41,3.30
2012,03,25,03,42,3.30
2012,03,25,03,43,3.30
2012,03,25,03,44,3.30
2012,03,25,03,45,3.30
2012,03,25,03,46,3.30
2012,03,25,03,47,3.30
2012,03,25,03,48,3.30
2012,03,25,03,49,3.30
2012,03,25,03,50,3.30
2012,03,25,03,51,3.30
2012,03,25,03,52,3.30
2012,03,25,03,53,3.30
2012,03,25,03,54,3.30
2012,03,25,03,55,3.30
2012,03,25,03,56,3.30
2012,03,25,03,57,3.30
2012,03,25,03,58,3.40
2012,03,25,03,59,3.40
2012,03,25,04,00,3.40
2012,03,25,04,01,3.40
2012,03,25,04,02,3.40
2012,03,25,04,03,3.40
2012,03,25,04,04,3.40
2012,03,25,04,05,3.40
2012,03,25,04,06,3.50
2012,03,25,04,07,3.50
2012,03,25,04,08,3.50
2012,03,25,04,09,3.50
2012,03,25,04,10,3.50
2012,03,25,04,11,3.60
2012,03,25,04,12,3.60
2012,03,25,04,13,3.70
2012,03,25,04,14,3.70
2012,03,25,04,15,3.80
2012,03,25,04,16,3.80
2012,03,25,04,17,3.80
2012,03,25,04,18,3.80
2012,03,25,04,19,3.80
2012,03,25,04,20,3.80
2012,03,25,04,21,3.80
2012,03,25,04,22,3.70
2012,03,25,04,23,3.70
2012,03,25,04,24,3.70
2012,03,25,04,25,3.70
2012,03,25,04,26,3.80
2012,03,25,04,27,3.80
2012,03,25,04,28,3.80
2012,03,25,04,29,3.80
2012,03,25,04,30,3.80
2012,03,25,04,31,3.80
2012,03,25,04,32,3.80
2012,03,25,04,33,3.80
2012,03,25,04,34,3.80
2012,03,25,04,35,3.80
2012,03,25,04,36,3.80
2012,03,25,04,37,3.80
2012,03,25,04,38,3.80
2012,03,25,04,39,3.80
2012,03,25,04,40,3.80
2012,03,25,04,41,3.80
2012,03,25,04,42,3.80
2012,03,25,04,43,3.80
2012,03,25,04,44,3.70
2012,03,25,04,45,3.60
2012,03,25,04,46,3.60
2012,03,25,04,47,3.50
2012,03,25,04,48,3.50
2012,03,25,04,49,3.40
2012,03,25,04,50,3.40
2012,03,25,04,51,3.30
2012,03,25,04,52,3.30
2012,03,25,04,53,3.30
2012,03,25,04,54,3.30
2012,03,25,04,55,3.30
2012,03,25,04,56,3.30
2012,03,25,04,57,3.30
2012,03,25,04,58,3.20
2012,03,25,04,59,3.20
2012,03,25,05,00,3.20
2012,03,25,05,01,3.20
2012,03,25,05,02,3.10
2012,03,25,05,03,3.10
2012,03,25,05,04,3.10
2012,03,25,05,05,3.10
2012,03,25,05,06,3.10
2012,03,25,05,07,3.10
2012,03,25,05,08,3.10
2012,03,25,05,09,3.00
2012,03,25,05,10,2.90
2012,03,25,05,11,2.90
2012,03,25,05,12,2.90
2012,03,25,05,13,2.90
2012,03,25,05,14,2.90
2012,03,25,05,15,2.90
2012,03,25,05,16,2.90
2012,03,25,05,17,2.90
2012,03,25,05,18,2.90
2012,03,25,05,19,2.90
2012,03,25,05,20,2.80
2012,03,25,05,21,2.80
2012,03,25,05,22,2.80
2012,03,25,05,23,2.70
2012,03,25,05,24,2.70
2012,03,25,05,25,2.70
2012,03,25,05,26,2.70
2012,03,25,05,27,2.70
2012,03,25,05,28,2.60
2012,03,25,05,29,2.60
2012,03,25,05,30,2.60
2012,03,25,05,31,2.60
2012,03,25,05,32,2.60
2012,03,25,05,33,2.60
2012,03,25,05,34,2.60
2012,03,25,05,35,2.60
2012,03,25,05,36,2.60
2012,03,25,05,37,2.60
2012,03,25,05,38,2.60
2012,03,25,05,39,2.60
2012,03,25,05,40,2.60
2012,03,25,05,41,2.70
2012,03,25,05,42,2.70
2012,03,25,05,43,2.70
2012,03,25,05,44,2.70
2012,03,25,05,45,2.70
2012,03,25,05,46,2.80
2012,03,25,05,47,2.80
2012,03,25,05,48,2.90
2012,03,25,05,49,2.90
2012,03,25,05,50,2.90
2012,03,25,05,51,2.90
2012,03,25,05,52,2.90
2012,03,25,05,53,2.90
2012,03,25,05,54,2.90
2012,03,25,05,55,2.90
2012,03,25,05,56,3.10
2012,03,25,05,57,3.10
2012,03,25,05,58,3.10
2012,03,25,05,59,3.10
2012,03,25,06,00,3.10
2012,03,25,06,01,3.10
2012,03,25,06,02,3.10
2012,03,25,06,03,3.10
2012,03,25,06,04,3.10
2012,03,25,06,05,3.10
2012,03,25,06,06,3.10
2012,03,25,06,07,3.10
2012,03,25,06,08,3.10
2012,03,25,06,09,3.10
2012,03,25,06,10,3.10
2012,03,25,06,11,3.10
2012,03,25,06,12,3.10
2012,03,25,06,13,3.10
2012,03,25,06,14,3.10
2012,03,25,06,15,3.10
2012,03,25,06,16,3.10
2012,03,25,06,17,3.10
2012,03,25,06,18,3.10
2012,03,25,06,19,3.00
2012,03,25,06,20,2.90
2012,03,25,06,21,2.90
2012,03,25,06,22,2.90
2012,03,25,06,23,2.90
2012,03,25,06,24,2.90
2012,03,25,06,25,2.90
2012,03,25,06,26,2.90
2012,03,25,06,27,2.90
2012,03,25,06,28,2.90
2012,03,25,06,29,2.90
2012,03,25,06,30,2.90
2012,03,25,06,31,2.90
2012,03,25,06,32,2.90
2012,03,25,06,33,2.90
2012,03,25,06,34,2.80
2012,03,25,06,35,2.80
2012,03,25,06,36,2.80
2012,03,25,06,37,2.80
2012,03,25,06,38,2.80
2012,03,25,06,39,2.80
2012,03,25,06,40,2.80
2012,03,25,06,41,2.80
2012,03,25,06,42,2.80
2012,03,25,06,43,2.80
2012,03,25,06,44,2.80
2012,03,25,06,45,2.80
2012,03,25,06,46,2.80
2012,03,25,06,47,2.80
2012,03,25,06,48,2.70
2012,03,25,06,49,2.70
2012,03,25,06,50,2.70
2012,03,25,06,51,2.70
2012,03,25,06,52,2.70
2012,03,25,06,53,2.70
2012,03,25,06,54,2.70
2012,03,25,06,55,2.70
2012,03,25,06,56,2.70
2012,03,25,06,57,2.70
2012,03,25,06,58,2.70
2012,03,25,06,59,2.70
2012,03,25,07,00,2.70
2012,03,25,07,01,2.70
2012,03,25,07,02,2.70
2012,03,25,07,03,2.70
2012,03,25,07,04,2.70
2012,03,25,07,05,2.70
2012,03,25,07,06,2.70
2012,03,25,07,07,2.70
2012,03,25,07,08,2.70
2012,03,25,07,09,2.70
2012,03,25,07,10,2.70
2012,03,25,07,11,2.70
2012,03,25,07,12,2.70
2012,03,25,07,13,2.70
2012,03,25,07,14,2.60
2012,03,25,07,15,2.60
2012,03,25,07,16,2.60
2012,03,25,07,17,2.60
2012,03,25,07,18,2.60
2012,03,25,07,19,2.60
2012,03,25,07,20,2.60
2012,03,25,07,21,2.60
2012,03,25,07,22,2.60
2012,03,25,07,23,2.60
2012,03,25,07,24,2.60
2012,03,25,07,25,2.60
2012,03,25,07,26,2.60
2012,03,25,07,27,2.70
2012,03,25,07,28,2.70
2012,03,25,07,29,2.70
2012,03,25,07,30,2.70
2012,03,25,07,31,2.70
2012,03,25,07,32,2.70
2012,03,25,07,33,2.80
2012,03,25,07,34,2.80
2012,03,25,07,35,2.80
2012,03,25,07,36,2.90
2012,03,25,07,37,2.90
2012,03,25,07,38,2.90
2012,03,25,07,39,3.00
2012,03,25,07,40,3.10
2012,03,25,07,41,3.10
2012,03,25,07,42,3.20
2012,03,25,07,43,3.30
2012,03,25,07,44,3.30
2012,03,25,07,45,3.40
2012,03,25,07,46,3.50
2012,03,25,07,47,3.50
2012,03,25,07,48,3.60
2012,03,25,07,49,3.60
2012,03,25,07,50,3.70
2012,03,25,07,51,3.70
2012,03,25,07,52,3.80
2012,03,25,07,53,3.80
2012,03,25,07,54,3.80
2012,03,25,07,55,3.90
2012,03,25,07,56,4.00
2012,03,25,07,57,4.00
2012,03,25,07,58,4.00
2012,03,25,07,59,4.10
2012,03,25,08,00,4.10
2012,03,25,08,01,4.20
2012,03,25,08,02,4.20
2012,03,25,08,03,4.40
2012,03,25,08,04,4.50
2012,03,25,08,05,4.50
2012,03,25,08,06,4.60
2012,03,25,08,07,4.70
2012,03,25,08,08,4.80
2012,03,25,08,09,4.90
2012,03,25,08,10,5.00
2012,03,25,08,11,5.10
2012,03,25,08,12,5.10
2012,03,25,08,13,5.20
2012,03,25,08,14,5.30
2012,03,25,08,15,5.30
2012,03,25,08,16,5.40
2012,03,25,08,17,5.50
2012,03,25,08,18,5.50
2012,03,25,08,19,5.50
2012,03,25,08,20,5.60
2012,03,25,08,21,5.60
2012,03,25,08,22,5.60
2012,03,25,08,23,5.60
2012,03,25,08,24,5.70
2012,03,25,08,25,5.70
2012,03,25,08,26,5.70
2012,03,25,08,27,5.70
2012,03,25,08,28,5.70
2012,03,25,08,29,5.70
2012,03,25,08,30,5.80
2012,03,25,08,31,5.90
2012,03,25,08,32,5.90
2012,03,25,08,33,6.00
2012,03,25,08,34,6.20
2012,03,25,08,35,6.20
2012,03,25,08,36,6.30
2012,03,25,08,37,6.40
2012,03,25,08,38,6.40
2012,03,25,08,39,6.40
2012,03,25,08,40,6.60
2012,03,25,08,41,6.60
2012,03,25,08,42,6.70
2012,03,25,08,43,6.80
2012,03,25,08,44,6.80
2012,03,25,08,45,6.90
2012,03,25,08,46,7.00
2012,03,25,08,47,7.00
2012,03,25,08,48,7.10
2012,03,25,08,49,7.20
2012,03,25,08,50,7.20
2012,03,25,08,51,7.30
2012,03,25,08,52,7.30
2012,03,25,08,53,7.30
2012,03,25,08,54,7.30
2012,03,25,08,55,7.40
2012,03,25,08,56,7.40
2012,03,25,08,57,7.50
2012,03,25,08,58,7.50
2012,03,25,08,59,7.60
2012,03,25,09,00,7.60
2012,03,25,09,01,7.70
2012,03,25,09,02,7.70
2012,03,25,09,03,7.80
2012,03,25,09,04,7.80
2012,03,25,09,05,7.80
2012,03,25,09,06,7.90
2012,03,25,09,07,7.90
2012,03,25,09,08,8.00
2012,03,25,09,09,8.00
2012,03,25,09,10,8.00
2012,03,25,09,11,8.10
2012,03,25,09,12,8.10
2012,03,25,09,13,8.10
2012,03,25,09,14,8.10
2012,03,25,09,15,8.10
2012,03,25,09,16,8.20
2012,03,25,09,17,8.20
2012,03,25,09,18,8.20
2012,03,25,09,19,8.20
2012,03,25,09,20,8.30
2012,03,25,09,21,8.30
2012,03,25,09,22,8.30
2012,03,25,09,23,8.40
2012,03,25,09,24,8.40
2012,03,25,09,25,8.40
2012,03,25,09,26,8.40
2012,03,25,09,27,8.40
2012,03,25,09,28,8.40
2012,03,25,09,29,8.50
2012,03,25,09,30,8.50
2012,03,25,09,31,8.50
2012,03,25,09,32,8.50
2012,03,25,09,33,8.60
2012,03,25,09,34,8.60
2012,03,25,09,35,8.60
2012,03,25,09,36,8.70
2012,03,25,09,37,8.70
2012,03,25,09,38,8.70
2012,03,25,09,39,8.70
2012,03,25,09,40,8.70
2012,03,25,09,41,8.70
2012,03,25,09,42,8.70
2012,03,25,09,43,8.80
2012,03,25,09,44,8.80
2012,03,25,09,45,8.90
2012,03,25,09,46,8.90
2012,03,25,09,47,9.00
2012,03,25,09,48,9.00
2012,03,25,09,49,9.10
2012,03,25,09,50,9.10
2012,03,25,09,51,9.10
2012,03,25,09,52,9.20
2012,03,25,09,53,9.20
2012,03,25,09,54,9.20
2012,03,25,09,55,9.20
2012,03,25,09,56,9.20
2012,03,25,09,57,9.20
2012,03,25,09,58,9.30
2012,03,25,09,59,9.30
2012,03,25,10,00,9.30
2012,03,25,10,01,9.30
2012,03,25,10,02,9.30
2012,03,25,10,03,9.40
2012,03,25,10,04,9.40
2012,03,25,10,05,9.40
2012,03,25,10,06,9.40
2012,03,25,10,07,9.50
2012,03,25,10,08,9.50
2012,03,25,10,09,9.50
2012,03,25,10,10,9.60
2012,03,25,10,11,9.60
2012,03,25,10,12,9.60
2012,03,25,10,13,9.70
2012,03,25,10,14,9.70
2012,03,25,10,15,9.70
2012,03,25,10,16,9.70
2012,03,25,10,17,9.80
2012,03,25,10,18,9.80
2012,03,25,10,19,9.90
2012,03,25,10,20,10.00
2012,03,25,10,21,10.10
2012,03,25,10,22,10.10
2012,03,25,10,23,10.10
2012,03,25,10,24,10.10
2012,03,25,10,25,10.10
2012,03,25,10,26,10.10
2012,03,25,10,27,10.30
2012,03,25,10,28,10.50
2012,03,25,10,29,10.60
2012,03,25,10,30,10.60
2012,03,25,10,31,10.70
2012,03,25,10,32,10.70
2012,03,25,10,33,10.70
2012,03,25,10,34,10.80
2012,03,25,10,35,10.90
2012,03,25,10,36,10.90
2012,03,25,10,37,11.10
2012,03,25,10,38,11.10
2012,03,25,10,39,11.10
2012,03,25,10,40,11.10
2012,03,25,10,41,11.20
2012,03,25,10,42,11.30
2012,03,25,10,43,11.30
2012,03,25,10,44,11.40
2012,03,25,10,45,11.40
2012,03,25,10,46,11.40
2012,03,25,10,47,11.50
2012,03,25,10,48,11.60
2012,03,25,10,49,11.60
2012,03,25,10,50,11.60
2012,03,25,10,51,11.70
2012,03,25,10,52,11.70
2012,03,25,10,53,11.80
2012,03,25,10,54,11.90
2012,03,25,10,55,12.00
2012,03,25,10,56,12.00
2012,03,25,10,57,12.10
2012,03,25,10,58,12.20
2012,03,25,10,59,12.20
2012,03,25,11,00,12.30
2012,03,25,11,01,12.30
2012,03,25,11,02,12.30
2012,03,25,11,03,12.30
2012,03,25,11,04,12.20
2012,03,25,11,05,12.20
2012,03,25,11,06,12.10
2012,03,25,11,07,12.10
2012,03,25,11,08,12.00
2012,03,25,11,09,11.90
2012,03,25,11,10,11.90
2012,03,25,11,11,11.90
2012,03,25,11,12,11.80
2012,03,25,11,13,11.80
2012,03,25,11,14,11.80
2012,03,25,11,15,11.80
2012,03,25,11,16,11.80
2012,03,25,11,17,11.90
2012,03,25,11,18,11.90
2012,03,25,11,19,11.90
2012,03,25,11,20,11.90
2012,03,25,11,21,11.90
2012,03,25,11,22,11.90
2012,03,25,11,23,11.90
2012,03,25,11,24,11.80
2012,03,25,11,25,11.80
2012,03,25,11,26,11.80
2012,03,25,11,27,11.80
2012,03,25,11,28,11.80
2012,03,25,11,29,11.80
2012,03,25,11,30,11.80
2012,03,25,11,31,11.80
2012,03,25,11,32,11.80
2012,03,25,11,33,11.80
2012,03,25,11,34,11.80
2012,03,25,11,35,11.80
2012,03,25,11,36,11.80
2012,03,25,11,37,11.80
2012,03,25,11,38,11.80
2012,03,25,11,39,11.80
2012,03,25,11,40,11.80
2012,03,25,11,41,11.90
2012,03,25,11,42,11.90
2012,03,25,11,43,11.90
2012,03,25,11,44,12.00
2012,03,25,11,45,12.00
2012,03,25,11,46,12.00
2012,03,25,11,47,12.00
2012,03,25,11,48,12.00
2012,03,25,11,49,12.00
2012,03,25,11,50,12.10
2012,03,25,11,51,12.20
2012,03,25,11,52,12.30
2012,03,25,11,53,12.40
2012,03,25,11,54,12.50
2012,03,25,11,55,12.60
2012,03,25,11,56,12.60
2012,03,25,11,57,12.70
2012,03,25,11,58,12.80
2012,03,25,11,59,12.80
2012,03,25,12,00,12.90
2012,03,25,12,01,13.00
2012,03,25,12,02,13.00
2012,03,25,12,03,13.10
2012,03,25,12,04,13.10
2012,03,25,12,05,13.10
2012,03,25,12,06,13.20
2012,03,25,12,07,13.30
2012,03,25,12,08,13.30
2012,03,25,12,09,13.20
2012,03,25,12,10,13.20
2012,03,25,12,11,13.10
2012,03,25,12,12,13.00
2012,03,25,12,13,13.00
2012,03,25,12,14,12.90
2012,03,25,12,15,12.80
2012,03,25,12,16,12.80
2012,03,25,12,17,12.80
2012,03,25,12,18,12.80
2012,03,25,12,19,12.80
2012,03,25,12,20,12.90
2012,03,25,12,21,13.00
2012,03,25,12,22,13.10
2012,03,25,12,23,13.10
2012,03,25,12,24,13.10
2012,03,25,12,25,13.10
2012,03,25,12,26,13.10
2012,03,25,12,27,13.10
2012,03,25,12,28,13.00
2012,03,25,12,29,13.00
2012,03,25,12,30,13.00
2012,03,25,12,31,13.00
2012,03,25,12,32,12.90
2012,03,25,12,33,12.80
2012,03,25,12,34,12.80
2012,03,25,12,35,12.80
2012,03,25,12,36,12.80
2012,03,25,12,37,12.80
2012,03,25,12,38,12.80
2012,03,25,12,39,12.70
2012,03,25,12,40,12.80
2012,03,25,12,41,12.80
2012,03,25,12,42,12.80
2012,03,25,12,43,12.90
2012,03,25,12,44,12.80
2012,03,25,12,45,12.80
2012,03,25,12,46,12.80
2012,03,25,12,47,12.80
2012,03,25,12,48,12.80
2012,03,25,12,49,12.80
2012,03,25,12,50,12.80
2012,03,25,12,51,12.90
2012,03,25,12,52,13.00
2012,03,25,12,53,13.00
2012,03,25,12,54,13.10
2012,03,25,12,55,13.00
2012,03,25,12,56,13.00
2012,03,25,12,57,12.90
2012,03,25,12,58,12.80
2012,03,25,12,59,12.80
2012,03,25,13,00,12.80
2012,03,25,13,01,12.90
2012,03,25,13,02,13.00
2012,03,25,13,03,13.10
2012,03,25,13,04,13.10
2012,03,25,13,05,13.20
2012,03,25,13,06,13.20
2012,03,25,13,07,13.30
2012,03,25,13,08,13.30
2012,03,25,13,09,13.30
2012,03,25,13,10,13.40
2012,03,25,13,11,13.40
2012,03,25,13,12,13.40
2012,03,25,13,13,13.30
2012,03,25,13,14,13.30
2012,03,25,13,15,13.30
2012,03,25,13,16,13.30
2012,03,25,13,17,13.30
2012,03,25,13,18,13.30
2012,03,25,13,19,13.30
2012,03,25,13,20,13.30
2012,03,25,13,21,13.30
2012,03,25,13,22,13.30
2012,03,25,13,23,13.20
2012,03,25,13,24,13.10
2012,03,25,13,25,13.10
2012,03,25,13,26,13.10
2012,03,25,13,27,13.00
2012,03,25,13,28,13.10
2012,03,25,13,29,13.10
2012,03,25,13,30,13.10
2012,03,25,13,31,13.10
2012,03,25,13,32,13.20
2012,03,25,13,33,13.20
2012,03,25,13,34,13.20
2012,03,25,13,35,13.20
2012,03,25,13,36,13.20
2012,03,25,13,37,13.30
2012,03,25,13,38,13.30
2012,03,25,13,39,13.40
2012,03,25,13,40,13.40
2012,03,25,13,41,13.50
2012,03,25,13,42,13.50
2012,03,25,13,43,13.50
2012,03,25,13,44,13.50
2012,03,25,13,45,13.60
2012,03,25,13,46,13.60
2012,03,25,13,47,13.60
2012,03,25,13,48,13.50
2012,03,25,13,49,13.50
2012,03,25,13,50,13.60
2012,03,25,13,51,13.60
2012,03,25,13,52,13.60
2012,03,25,13,53,13.60
2012,03,25,13,54,13.60
2012,03,25,13,55,13.70
2012,03,25,13,56,13.70
2012,03,25,13,57,13.70
2012,03,25,13,58,13.70
2012,03,25,13,59,13.70
2012,03,25,14,00,13.70
2012,03,25,14,01,13.70
2012,03,25,14,02,13.80
2012,03,25,14,03,13.80
2012,03,25,14,04,13.80
2012,03,25,14,05,13.80
2012,03,25,14,06,13.80
2012,03,25,14,07,13.80
2012,03,25,14,08,13.70
2012,03,25,14,09,13.80
2012,03,25,14,10,13.80
2012,03,25,14,11,13.80
2012,03,25,14,12,13.80
2012,03,25,14,13,13.80
2012,03,25,14,14,13.80
2012,03,25,14,15,13.80
2012,03,25,14,16,13.80
2012,03,25,14,17,13.80
2012,03,25,14,18,13.80
2012,03,25,14,19,13.80
2012,03,25,14,20,13.80
2012,03,25,15,28,14.20
2012,03,25,15,29,14.20
2012,03,25,15,30,14.20
2012,03,25,15,31,14.30
2012,03,25,15,32,14.30
2012,03,25,15,33,14.30
2012,03,25,15,34,14.40
2012,03,25,15,35,14.50
2012,03,25,15,36,14.50
2012,03,25,15,37,14.50
2012,03,25,15,38,14.50
2012,03,25,15,39,14.60
2012,03,25,15,40,14.70
2012,03,25,15,41,14.70
2012,03,25,15,42,14.80
2012,03,25,15,43,14.80
2012,03,25,15,44,14.80
2012,03,25,15,45,14.80
2012,03,25,15,46,14.80
2012,03,25,15,47,14.80
2012,03,25,15,48,14.90
2012,03,25,15,49,14.90
2012,03,25,15,50,15.00
2012,03,25,15,51,15.00
2012,03,25,15,52,15.10
2012,03,25,15,53,15.00
2012,03,25,15,54,15.00
2012,03,25,15,55,15.00
2012,03,25,15,56,15.00
2012,03,25,15,57,15.00
2012,03,25,15,58,15.10
2012,03,25,15,59,15.10
2012,03,25,16,00,15.10
2012,03,25,16,01,15.20
2012,03,25,16,02,15.20
2012,03,25,16,03,15.20
2012,03,25,16,04,15.30
2012,03,25,16,05,15.30
2012,03,25,16,06,15.30
2012,03,25,16,07,15.40
2012,03,25,16,08,15.50
2012,03,25,16,09,15.50
2012,03,25,16,10,15.50
2012,03,25,16,11,15.50
2012,03,25,16,12,15.50
2012,03,25,16,13,15.50
2012,03,25,16,14,15.60
2012,03,25,16,15,15.60
2012,03,25,16,16,15.70
2012,03,25,16,17,15.80
2012,03,25,16,18,15.60
2012,03,25,16,19,15.10
2012,03,25,16,20,14.40
2012,03,25,16,21,13.90
2012,03,25,16,22,13.40
2012,03,25,16,23,12.90
2012,03,25,16,24,12.50
2012,03,25,16,25,12.20
2012,03,25,16,26,12.00
2012,03,25,16,27,12.00
2012,03,25,16,28,12.00
2012,03,25,16,29,12.00
2012,03,25,16,30,12.10
2012,03,25,16,31,12.20
2012,03,25,16,32,12.40
2012,03,25,16,33,12.50
2012,03,25,16,34,12.70
2012,03,25,16,35,12.70
2012,03,25,16,36,12.70
2012,03,25,16,37,12.50
2012,03,25,16,38,12.30
2012,03,25,16,39,12.20
2012,03,25,16,40,12.10
2012,03,25,16,41,12.00
2012,03,25,16,42,11.90
2012,03,25,16,43,11.80
2012,03,25,16,44,11.70
2012,03,25,16,45,11.60
2012,03,25,16,46,11.60
2012,03,25,16,47,11.50
2012,03,25,16,48,11.40
2012,03,25,16,49,11.50
2012,03,25,16,50,11.40
2012,03,25,16,51,11.40
2012,03,25,16,52,11.40
2012,03,25,16,53,11.40
2012,03,25,16,54,11.40
2012,03,25,16,55,11.40
2012,03,25,16,56,11.40
2012,03,25,16,57,11.30
2012,03,25,16,58,11.20
2012,03,25,16,59,11.10
2012,03,25,17,00,11.10
2012,03,25,17,01,10.90
2012,03,25,17,02,10.90
2012,03,25,17,03,10.90
2012,03,25,17,04,10.80
2012,03,25,17,05,10.80
2012,03,25,17,06,10.80
2012,03,25,17,07,10.80
2012,03,25,17,08,10.80
2012,03,25,17,09,10.80
2012,03,25,17,10,10.70
2012,03,25,17,11,10.60
2012,03,25,17,12,10.60
2012,03,25,17,13,10.70
2012,03,25,17,14,10.70
2012,03,25,17,15,10.80
2012,03,25,17,16,10.80
2012,03,25,17,17,10.90
2012,03,25,17,18,10.90
2012,03,25,17,19,10.90
2012,03,25,17,20,10.80
2012,03,25,17,21,10.70
2012,03,25,17,22,10.70
2012,03,25,17,23,10.60
2012,03,25,17,24,10.60
2012,03,25,17,25,10.60
2012,03,25,17,26,10.60
2012,03,25,17,27,10.60
2012,03,25,17,28,10.60
2012,03,25,17,29,10.60
2012,03,25,17,30,10.60
2012,03,25,17,31,10.70
2012,03,25,17,32,10.70
2012,03,25,17,33,10.80
2012,03,25,17,34,10.90
2012,03,25,17,35,10.90
2012,03,25,17,36,10.90
2012,03,25,17,37,10.90
2012,03,25,17,38,10.90
2012,03,25,17,39,10.90
2012,03,25,17,40,10.90
2012,03,25,17,41,10.90
2012,03,25,17,42,10.90
2012,03,25,17,43,10.80
2012,03,25,17,44,10.70
2012,03,25,17,45,10.70
2012,03,25,17,46,10.60
2012,03,25,17,47,10.50
2012,03,25,17,48,10.40
2012,03,25,17,49,10.40
2012,03,25,17,50,10.40
2012,03,25,17,51,10.40
2012,03,25,17,52,10.30
2012,03,25,17,53,10.30
2012,03,25,17,54,10.30
2012,03,25,17,55,10.30
2012,03,25,17,56,10.40
2012,03,25,17,57,10.40
2012,03,25,17,58,10.40
2012,03,25,17,59,10.40
2012,03,25,18,00,10.40
2012,03,25,18,01,10.40
2012,03,25,18,02,10.40
2012,03,25,18,03,10.40
2012,03,25,18,04,10.40
2012,03,25,18,05,10.40
2012,03,25,18,06,10.40
2012,03,25,18,07,10.40
2012,03,25,18,08,10.40
2012,03,25,18,09,10.40
2012,03,25,18,10,10.40
2012,03,25,18,11,10.50
2012,03,25,18,12,10.60
2012,03,25,18,13,10.60
2012,03,25,18,14,10.60
2012,03,25,18,15,10.60
2012,03,25,18,16,10.60
2012,03,25,18,17,10.60
2012,03,25,18,18,10.60
2012,03,25,18,19,10.60
2012,03,25,18,20,10.60
2012,03,25,18,21,10.60
2012,03,25,18,22,10.60
2012,03,25,18,23,10.60
2012,03,25,18,24,10.60
2012,03,25,18,25,10.60
2012,03,25,18,26,10.60
2012,03,25,18,27,10.70
2012,03,25,18,28,10.70
2012,03,25,18,29,10.70
2012,03,25,18,30,10.70
2012,03,25,18,31,10.70
2012,03,25,18,32,10.70
2012,03,25,18,33,10.70
2012,03,25,18,34,10.70
2012,03,25,18,35,10.70
2012,03,25,18,36,10.70
2012,03,25,18,37,10.80
2012,03,25,18,38,10.80
2012,03,25,18,39,10.80
2012,03,25,18,40,10.90
2012,03,25,18,41,10.90
2012,03,25,18,42,10.90
2012,03,25,18,43,10.90
2012,03,25,18,44,10.90
2012,03,25,18,45,10.90
2012,03,25,18,46,10.90
2012,03,25,18,47,10.90
2012,03,25,18,48,10.90
2012,03,25,18,49,10.90
2012,03,25,18,50,11.00
2012,03,25,18,51,11.10
2012,03,25,18,52,11.10
2012,03,25,18,53,11.10